Regional Weather Roundup
Issued by NWS

Home | Current Version | Previous Version | Graphics & Text | Print | Product List | Glossary On
Versions: 1 2 3 4 5 6 7 8 9 10 11 12 13 14 15 16 17 18 19 20 21 22 23 24 25 26 27 28 29 30 31 32 33 34 35 36 37 38 39 40 41 42 43 44 45 46 47 48 49 50
178
ASUS43 KFSD 241910
RWRSD

WEATHER ROUNDUP FOR SOUTH DAKOTA
NATIONAL WEATHER SERVICE SIOUX FALLS SD
200 PM CDT THU MAY 24 2018

NOTE: "FAIR" INDICATES FEW OR NO CLOUDS BELOW 12,000 FEET WITH NO
SIGNIFICANT WEATHER AND/OR OBSTRUCTIONS TO VISIBILITY.


SDZ001>005-009-010-012>017-242000-
NORTHWEST AND NORTH CENTRAL SOUTH DAKOTA

CITY           SKY/WX    TMP DP  RH WIND       PRES   REMARKS
BUFFALO          N/A     76  52  43 W22G31    29.83S
FAITH            N/A     78  56  46 W12       29.88S
MOBRIDGE       SUNNY     83  61  47 W14       29.80F
$$

SDZ012>016-024>037-041>051-057-063-072>074-242000-
SOUTHWEST AND SOUTH CENTRAL SOUTH DAKOTA

CITY           SKY/WX    TMP DP  RH WIND       PRES   REMARKS
RAPID CTY ARPT SUNNY     77  53  43 NE8       29.93S
PIERRE         SUNNY     83  62  49 W12       29.84F
CUSTER         SUNNY     72  43  35 W14G21    30.05S
ELLSWORTH AFB  SUNNY     77  51  39 NE8       29.93S
PHILIP         SUNNY     80  59  48 W13G22    29.88S
PINE RIDGE     SUNNY     80  52  37 W12G23    29.97F
SPEARFISH      FAIR      75  52  43 NW7G16    29.97R
WINNER         FAIR      83  65  54 SW14      29.89F
$$

SDZ004>011-016>023-039-040-242000-
NORTHEAST SOUTH DAKOTA

CITY           SKY/WX    TMP DP  RH WIND       PRES   REMARKS
ABERDEEN       SUNNY     88  60  38 S17G28    29.83F
WATERTOWN      SUNNY     84  60  44 SW16G26   29.90S
BROOKINGS      CLOUDY    85  63  47 SW14      29.92S
SISSETON         N/A     86  61  42 SW15      29.85F
$$

SDZ017-020-022-023-036>040-048>070-242000-
SOUTHEAST SOUTH DAKOTA

CITY           SKY/WX    TMP DP  RH WIND       PRES   REMARKS
SIOUX FALLS    PTSUNNY   80  69  69 S17G28    29.91F
HURON          MOSUNNY   84  62  47 S14G22    29.87F
CHAMBERLAIN    PTSUNNY   83  68  59 S13       29.88F
MITCHELL       MOSUNNY   84  69  60 SE10      29.88F
YANKTON        SUNNY     86  61  42 S17       29.89F
$$

ABBREVIATIONS USED IN REMARKS
   TC - TEMPERATURE IN CELSIUS
  WCI - WIND CHILL INDEX
   HX - HEAT INDEX
  VSB - VISIBILITY





USA.gov is the U.S. government's official web portal to all federal, state and local government web resources and services.